KB6OQJ Weather Reports


Display with metric or nautical units.
time (UTC)temp
F
wind
direction
speed
MPH
gust
MPH
rain 1hr
in
rain 24hr
in
rain mn
in
humidity
%
barometer
mb
20260509215004 82 308 2.0 14.0 0.00 0.00 0.00 48 952.4
20260509214004 82 305 6.0 15.0 0.00 0.00 0.00 47 952.4
20260509213004 82 287 5.0 12.0 0.00 0.00 0.00 48 952.4
20260509212004 82 282 5.0 13.0 0.00 0.00 0.00 48 952.4
20260509211003 82 284 5.0 12.0 0.00 0.00 0.00 48 952.4
20260509210003 81 270 2.0 7.0 0.00 0.00 0.00 49 952.4
20260509205005 81 276 2.0 10.0 0.00 0.00 0.00 50 952.4
20260509173004 59 201 1.0 3.0 0.00 0.00 0.00 3 950.1
20260509172004 58 153 0.0 0.0 0.00 0.00 0.00 3 950.1
20260509171004 56 172 0.0 2.0 0.00 0.00 0.00 3 950.1
20260509165004 55 71 0.0 0.0 0.00 0.00 0.00 3 1013.9
20260509164004 54 84 0.0 0.0 0.00 0.00 0.00 3 1013.9
20260509160004 53 80 0.0 0.0 0.00 0.00 0.00 3 1013.9
20260509155004 53 104 0.0 0.0 0.00 0.00 0.00 3 1013.9
20260509154003 53 104 0.0 0.0 0.00 0.00 0.00 3 1013.9
20260509153004 53 104 0.0 0.0 0.00 0.00 0.00 3 1013.9
20260509152004 52 103 0.0 0.0 0.00 0.00 0.00 3 1013.9
20260509151004 52 103 0.0 0.0 0.00 0.00 0.00 3 1013.9
20260509150004 52 103 0.0 0.0 0.00 0.00 0.00 3 1013.7
20260509145004 52 103 0.0 0.0 0.00 0.00 0.00 3 1010.7
20260509144004 52 103 0.0 0.0 0.00 0.00 0.00 3 1010.7
20260509143004 52 103 0.0 0.0 0.00 0.00 0.00 3 1010.7
20260509142004 52 116 0.0 0.0 0.00 0.00 0.00 3 1010.8
20260509092004 53 65 0.0 0.0 0.00 0.00 0.00 3 833.9
20260509091004 53 39 0.0 0.0 0.00 0.00 0.00 3 900.9
20260509084003 53 39 0.0 0.0 0.00 0.00 0.00 3 900.9
20260509082004 53 38 0.0 0.0 0.00 0.00 0.00 3 900.9
20260509080004 53 38 0.0 0.0 0.00 0.00 0.00 3 900.9
20260509075004 53 38 0.0 0.0 0.00 0.00 0.00 3 900.9
20260509074004 53 38 0.0 0.0 0.00 0.00 0.00 3 900.9
20260509073004 53 38 0.0 0.0 0.00 0.00 0.00 3 900.9
20260509072004 53 33 0.0 0.0 0.00 0.00 0.00 3 900.9
20260509070004 53 40 0.0 0.0 0.00 0.00 0.00 3 900.9
20260509065004 54 43 0.0 0.0 0.00 0.00 0.00 3 900.9
20260509064004 54 8 0.0 0.0 0.00 0.00 0.00 3 900.9
20260509063004 54 267 0.0 0.0 0.00 0.00 0.00 3 900.9
20260509061004 54 266 0.0 0.0 0.00 0.00 0.00 8 900.9
20260509060004 53 266 0.0 0.0 0.00 0.00 0.00 10 900.9
20260509055004 53 269 0.0 0.0 0.00 0.00 0.00 18 900.9
20260509054004 53 265 0.0 0.0 0.00 0.00 0.00 20 900.9
20260509053004 53 265 0.0 0.0 0.00 0.00 0.00 22 900.9
20260509052004 54 265 0.0 0.0 0.00 0.00 0.00 23 900.9
20260509050004 55 256 0.0 1.0 0.00 0.00 0.00 27 900.9
20260509045004 55 306 0.0 0.0 0.00 0.00 0.00 29 900.9
20260509044004 55 274 0.0 2.0 0.00 0.00 0.00 32 900.9
20260509043004 55 254 0.0 0.0 0.00 0.00 0.00 35 900.9
20260509040004 57 321 0.0 3.0 0.00 0.00 0.00 45 900.9
20260509033004 58 269 0.0 6.0 0.00 0.00 0.00 54 900.9
20260509032004 59 280 0.0 6.0 0.00 0.00 0.00 56 888.6
20260509031004 59 271 0.0 5.0 0.00 0.00 0.00 59 888.6
20260509030004 60 299 0.0 9.0 0.00 0.00 0.00 61 888.6
20260509025004 61 283 0.0 6.0 0.00 0.00 0.00 63 888.6
20260509024004 61 270 1.0 7.0 0.00 0.00 0.00 64 888.6
20260509023004 62 293 2.0 7.0 0.00 0.00 0.00 65 886.2
20260509022003 63 286 5.0 10.0 0.00 0.00 0.00 65 886.2
20260509021004 64 287 3.0 12.0 0.00 0.00 0.00 65 891.9